CLICK-A (53769 NORAD) Tracking and Keplerian Element Data

This shows tracking and keplerian element data for the satellite.

Feedback or suggestion? Click here.




ElementValue
Catalog53769
NameCLICK-A
Epoch Orbit1180
Epoch Day325.13098914
Epoch Year2022
RAAN276.3427
Inclination51.6453
Eccentricity0.0005931
Argument of Perigee122.7131
Mean Anonmoly237.4435
Mean Motion15.60368868
Decay Rate0.00085873
L11 53769U 98067UG 22325.13098914 .00085873 00000+0 10218-2 0 9993
L22 53769 51.6453 276.3427 0005931 122.7131 237.4435 15.60368868 11801



Live tracking and technical data element details for CLICK-A (NORAD 53769). CLICK-A can be tracked NOW for your location showing map with azimuth and elevation plus other details from your city location.







IsCatalogInMostPopularTable: catalog: 53769, numindb: -1

Insert: records affected: 1


GetName: 53769 CLICK-A

Hit Count: inserted at: Thu, 08 Dec 2022 08:30:18 GMT